Regional Weather Roundup
Issued by NWS State College, PA

Home | Current Version | Previous Version | Text Only | Print | Product List | Glossary Off
Versions: 1 2 3 4 5 6 7 8 9 10 11 12 13 14 15 16 17 18 19 20 21 22 23 24 25 26 27 28 29 30 31 32 33 34 35 36 37 38 39 40 41 42 43 44 45 46 47 48 49 50

000
ASUS41 KCTP 271603
RWRCTP

REGIONAL WEATHER ROUNDUP
NATIONAL WEATHER SERVICE STATE COLLEGE PA
1100 AM EST MON FEB 27 2017

Note: "fair" indicates few or no clouds below 12,000 feet with no
significant weather and/or obstructions to visibility.

* = STATION THAT DOES NOT REPORT PRECIPITATION /E.G. RAIN...SNOW...ETC/
    THUNDER OR FOG.

PAZ002>004-007>009-013>016-020>023-029>032-271700-
WESTERN PENNSYLVANIA

CITY           SKY/WX    TMP DP  RH WIND       PRES   REMARKS
ERIE           SUNNY     47  22  37 SW14      30.27R
MEADVILLE      CLOUDY    40  19  43 SW9       30.27R
FRANKLIN*      CLOUDY    39  19  45 SW7       30.29S
NEW CASTLE     CLOUDY    41  20  43 VRB3      30.31R
BEAVER COUNTY  CLOUDY    41  19  42 SW6       30.30R
BUTLER*        CLOUDY    43  19  39 SW6       30.32R
PITTSBURGH INT CLOUDY    44  20  38 SW8       30.30R
PITTSBURGH     CLOUDY    45  19  35 SW7       30.30S
INDIANA*       CLOUDY    43  21  42 SW8       30.34S
LATROBE        CLOUDY    46  25  42 SW13G22   30.33R
WASHINGTON CO* PTSUNNY   45  27  49 SW15      30.33R
$$

PAZ004>006-010>012-017>019-024>028-033>037-041-042-045-046-049>053-271700-
CENTRAL PENNSYLVANIA

CITY           SKY/WX    TMP DP  RH WIND       PRES   REMARKS
BRADFORD       CLOUDY    39  17  41 SW9       30.24S
DUBOIS         CLOUDY    41  16  36 SW10G18   30.27S
CLEARFIELD       N/A    N/A N/A N/A MISG      30.30F
JOHNSTOWN      PTSUNNY   42  20  41 SW10      30.28R
ALTOONA        CLOUDY    45  20  36 SW10      30.32F
STATE COLLEGE  PTSUNNY   43  18  36 SW7       30.33F
WILLIAMSPORT   CLOUDY    37  23  56 VRB3      30.36F
SELINSGROVE    PTSUNNY   43  23  45 S8        30.38F
FT INDIANTOWN  CLOUDY    39  25  57 CALM      30.41S
CAPITAL CITY   CLOUDY    45  27  49 VRB3      30.40F
HARRISBURG     CLOUDY    44  31  60 SE5       30.40F
YORK           MOSUNNY   48  27  44 SW8       30.39F
$$

PAZ038>040-043-044-047-048-054-055-060>062-067>071-271700-
EASTERN PENNSYLVANIA

CITY           SKY/WX    TMP DP  RH WIND       PRES   REMARKS
SCRANTON       CLOUDY    44  19  36 W12       30.36R
MOUNT POCONO   CLOUDY    40  16  37 W10       30.33S
ALLENTOWN      MOSUNNY   46  27  47 VRB3      30.42S
QUAKERTOWN*    CLOUDY    45  32  61 SW9       30.42S
READING        MOSUNNY   42  31  64 CALM      30.41F
LANCASTER      CLOUDY    43  34  70 CALM      30.41F
COATESVILLE    PTSUNNY   46  34  61 VRB7      30.42F
POTTSTOWN      CLOUDY    45  32  60 VRB3      30.43F
BLUE BELL      CLOUDY    46  30  53 S7        30.42S
DOYLESTOWN     MOSUNNY   47  28  47 SW8       30.41F
WILLOW GROVE   NOT AVBL
NORTH PHILA    CLOUDY    50  30  46 SW13      30.45F
PHILADELPHIA   PTSUNNY   50  28  42 SW12      30.45S
$$



USA.gov is the U.S. government's official web portal to all federal, state and local government web resources and services.